Time,TemperatureF,DewpointF,PressureIn,WindDirection,WindDirectionDegrees,WindSpeedMPH,WindSpeedGustMPH,Humidity,HourlyPrecipIn,Conditions,Clouds,dailyrainin,SoftwareType,DateUTC
2013-02-10 00:11:00,69.6,59.8,30.03,ESE,112,8.9,-999.0,71,-99.99,,,0.00,Acu-Link.com,2013-02-10 05:11:00,
2013-02-10 00:26:00,69.8,60.0,30.03,ESE,112,3.7,-999.0,71,-99.99,,,0.00,Acu-Link.com,2013-02-10 05:26:00,
2013-02-10 00:41:00,69.8,60.0,30.03,ESE,112,4.7,-999.0,71,-99.99,,,0.00,Acu-Link.com,2013-02-10 05:41:00,
2013-02-10 00:56:00,69.6,59.4,30.03,ENE,67,7.3,-999.0,70,-99.99,,,0.00,Acu-Link.com,2013-02-10 05:56:00,
2013-02-10 01:11:00,69.4,59.2,30.03,ESE,112,6.3,-999.0,70,-99.99,,,0.00,Acu-Link.com,2013-02-10 06:11:00,
2013-02-10 01:27:00,69.3,59.1,30.02,ESE,112,5.3,-999.0,70,-99.99,,,0.00,Acu-Link.com,2013-02-10 06:27:00,
2013-02-10 01:42:00,68.7,58.5,30.02,East,90,4.2,-999.0,70,-99.99,,,0.00,Acu-Link.com,2013-02-10 06:42:00,
2013-02-10 01:57:00,68.5,58.7,30.03,East,90,6.3,-999.0,71,-99.99,,,0.00,Acu-Link.com,2013-02-10 06:57:00,
2013-02-10 02:12:00,68.7,58.9,30.02,ESE,112,4.2,-999.0,71,-99.99,,,0.00,Acu-Link.com,2013-02-10 07:12:00,
2013-02-10 02:27:00,68.9,59.1,30.02,ESE,112,3.2,-999.0,71,-99.99,,,0.00,Acu-Link.com,2013-02-10 07:27:00,
2013-02-10 02:42:00,68.4,59.0,30.02,East,90,5.3,-999.0,72,-99.99,,,0.00,Acu-Link.com,2013-02-10 07:42:00,
2013-02-10 02:57:00,68.4,59.4,30.01,ESE,112,2.2,-999.0,73,-99.99,,,0.00,Acu-Link.com,2013-02-10 07:57:00,
2013-02-10 03:12:00,68.4,59.8,30.01,East,90,3.7,-999.0,74,-99.99,,,0.00,Acu-Link.com,2013-02-10 08:12:00,
2013-02-10 03:27:00,68.2,59.6,30.02,East,90,4.2,-999.0,74,-99.99,,,0.00,Acu-Link.com,2013-02-10 08:27:00,
2013-02-10 03:43:00,68.2,60.0,30.01,ESE,112,4.7,-999.0,75,-99.99,,,0.00,Acu-Link.com,2013-02-10 08:43:00,
2013-02-10 03:58:00,68.2,60.7,30.01,ESE,112,2.7,-999.0,77,-99.99,,,0.00,Acu-Link.com,2013-02-10 08:58:00,
2013-02-10 04:19:00,68.2,61.1,30.01,ENE,67,3.7,-999.0,78,-99.99,,,0.00,Acu-Link.com,2013-02-10 09:19:00,
2013-02-10 04:34:00,68.5,62.8,30.00,ENE,67,8.3,-999.0,82,-99.99,,,0.00,Acu-Link.com,2013-02-10 09:34:00,
2013-02-10 04:50:00,68.7,62.6,30.01,East,90,7.3,-999.0,81,-99.99,,,0.00,Acu-Link.com,2013-02-10 09:50:00,
2013-02-10 05:05:00,68.7,62.3,30.01,ESE,112,4.2,-999.0,80,-99.99,,,0.00,Acu-Link.com,2013-02-10 10:05:00,
2013-02-10 05:20:00,69.6,61.7,30.02,East,90,6.8,-999.0,76,-99.99,,,0.00,Acu-Link.com,2013-02-10 10:20:00,
2013-02-10 05:35:00,69.6,63.1,30.02,East,90,4.2,-999.0,80,-99.99,,,0.00,Acu-Link.com,2013-02-10 10:35:00,
2013-02-10 05:50:00,69.3,63.6,30.02,ESE,112,7.8,-999.0,82,-99.99,,,0.00,Acu-Link.com,2013-02-10 10:50:00,
2013-02-10 06:05:00,69.1,63.4,30.03,East,90,4.7,-999.0,82,-99.99,,,0.00,Acu-Link.com,2013-02-10 11:05:00,
2013-02-10 06:20:00,69.1,63.4,30.03,NE,45,5.8,-999.0,82,-99.99,,,0.00,Acu-Link.com,2013-02-10 11:20:00,
2013-02-10 06:36:00,69.4,61.9,30.04,East,90,3.7,-999.0,77,-99.99,,,0.00,Acu-Link.com,2013-02-10 11:36:00,
2013-02-10 06:51:00,70.2,61.9,30.03,East,90,9.9,-999.0,75,-99.99,,,0.00,Acu-Link.com,2013-02-10 11:51:00,
2013-02-10 07:06:00,70.3,62.0,30.05,ESE,112,5.8,-999.0,75,-99.99,,,0.00,Acu-Link.com,2013-02-10 12:06:00,
2013-02-10 07:21:00,70.3,62.0,30.05,East,90,7.3,-999.0,75,-99.99,,,0.00,Acu-Link.com,2013-02-10 12:21:00,
2013-02-10 07:36:00,70.7,62.0,30.06,ENE,67,8.3,-999.0,74,-99.99,,,0.00,Acu-Link.com,2013-02-10 12:36:00,
2013-02-10 07:51:00,71.8,62.7,30.06,ESE,112,7.3,-999.0,73,-99.99,,,0.00,Acu-Link.com,2013-02-10 12:51:00,
2013-02-10 08:07:00,72.1,62.2,30.06,East,90,8.3,-999.0,71,-99.99,,,0.00,Acu-Link.com,2013-02-10 13:07:00,
2013-02-10 08:22:00,72.7,61.9,30.06,SSE,157,6.8,-999.0,69,-99.99,,,0.00,Acu-Link.com,2013-02-10 13:22:00,
2013-02-10 08:37:00,73.0,62.6,30.07,ESE,112,4.2,-999.0,70,-99.99,,,0.00,Acu-Link.com,2013-02-10 13:37:00,
2013-02-10 08:52:00,73.2,62.0,30.07,East,90,5.3,-999.0,68,-99.99,,,0.00,Acu-Link.com,2013-02-10 13:52:00,
2013-02-10 09:07:00,72.9,62.1,30.08,SE,135,11.9,-999.0,69,-99.99,,,0.00,Acu-Link.com,2013-02-10 14:07:00,
2013-02-10 09:22:00,72.3,61.5,30.08,East,90,8.3,-999.0,69,-99.99,,,0.00,Acu-Link.com,2013-02-10 14:22:00,
2013-02-10 09:38:00,72.5,61.7,30.09,East,90,11.4,-999.0,69,-99.99,,,0.00,Acu-Link.com,2013-02-10 14:38:00,
2013-02-10 09:53:00,72.3,61.5,30.10,East,90,11.9,-999.0,69,-99.99,,,0.00,Acu-Link.com,2013-02-10 14:53:00,
2013-02-10 10:08:00,72.1,61.4,30.11,ESE,112,14.5,-999.0,69,-99.99,,,0.00,Acu-Link.com,2013-02-10 15:08:00,
2013-02-10 10:23:00,72.5,60.9,30.11,East,90,11.4,-999.0,67,-99.99,,,0.00,Acu-Link.com,2013-02-10 15:23:00,
2013-02-10 10:38:00,72.5,61.3,30.11,ESE,112,9.4,-999.0,68,-99.99,,,0.00,Acu-Link.com,2013-02-10 15:38:00,
2013-02-10 10:53:00,72.1,60.9,30.11,ESE,112,6.8,-999.0,68,-99.99,,,0.00,Acu-Link.com,2013-02-10 15:53:00,
2013-02-10 11:09:00,72.5,61.3,30.12,SSE,157,9.9,-999.0,68,-99.99,,,0.00,Acu-Link.com,2013-02-10 16:09:00,
2013-02-10 11:24:00,72.7,61.5,30.11,East,90,10.4,-999.0,68,-99.99,,,0.00,Acu-Link.com,2013-02-10 16:24:00,
2013-02-10 11:39:00,72.3,61.1,30.11,ENE,67,12.5,-999.0,68,-99.99,,,0.00,Acu-Link.com,2013-02-10 16:39:00,
2013-02-10 11:54:00,72.5,61.3,30.10,ESE,112,13.5,-999.0,68,-99.99,,,0.00,Acu-Link.com,2013-02-10 16:54:00,
2013-02-10 12:09:00,72.9,61.7,30.09,ENE,67,8.3,-999.0,68,-99.99,,,0.00,Acu-Link.com,2013-02-10 17:09:00,
2013-02-10 12:24:00,72.5,61.3,30.09,ENE,67,8.9,-999.0,68,-99.99,,,0.00,Acu-Link.com,2013-02-10 17:24:00,
2013-02-10 12:39:00,72.9,61.7,30.10,ESE,112,11.4,-999.0,68,-99.99,,,0.00,Acu-Link.com,2013-02-10 17:39:00,
2013-02-10 12:54:00,72.5,62.1,30.08,East,90,5.8,-999.0,70,-99.99,,,0.00,Acu-Link.com,2013-02-10 17:54:00,
2013-02-10 13:09:00,72.7,62.3,30.07,East,90,13.5,-999.0,70,-99.99,,,0.00,Acu-Link.com,2013-02-10 18:09:00,
2013-02-10 13:25:00,73.6,61.5,30.07,ESE,112,9.4,-999.0,66,-99.99,,,0.00,Acu-Link.com,2013-02-10 18:25:00,
2013-02-10 13:40:00,74.1,61.6,30.06,SSE,157,12.5,-999.0,65,-99.99,,,0.00,Acu-Link.com,2013-02-10 18:40:00,
2013-02-10 13:55:00,73.6,61.5,30.05,ESE,112,15.0,-999.0,66,-99.99,,,0.00,Acu-Link.com,2013-02-10 18:55:00,
2013-02-10 14:10:00,73.6,61.5,30.04,ESE,112,7.3,-999.0,66,-99.99,,,0.00,Acu-Link.com,2013-02-10 19:10:00,
2013-02-10 14:25:00,73.8,61.7,30.04,NE,45,6.8,-999.0,66,-99.99,,,0.00,Acu-Link.com,2013-02-10 19:25:00,
2013-02-10 14:40:00,74.8,61.8,30.03,ESE,112,12.5,-999.0,64,-99.99,,,0.00,Acu-Link.com,2013-02-10 19:40:00,
2013-02-10 14:55:00,74.3,61.8,30.04,ESE,112,15.5,-999.0,65,-99.99,,,0.00,Acu-Link.com,2013-02-10 19:55:00,
2013-02-10 15:10:00,74.3,61.3,30.04,ESE,112,15.0,-999.0,64,-99.99,,,0.00,Acu-Link.com,2013-02-10 20:10:00,
2013-02-10 15:25:00,73.6,61.5,30.03,SE,135,8.9,-999.0,66,-99.99,,,0.00,Acu-Link.com,2013-02-10 20:25:00,
2013-02-10 15:41:00,73.8,61.7,30.04,ESE,112,13.5,-999.0,66,-99.99,,,0.00,Acu-Link.com,2013-02-10 20:41:00,
2013-02-10 15:56:00,73.4,61.8,30.03,ESE,112,6.8,-999.0,67,-99.99,,,0.00,Acu-Link.com,2013-02-10 20:56:00,
2013-02-10 16:11:00,73.4,61.8,30.03,ESE,112,7.8,-999.0,67,-99.99,,,0.00,Acu-Link.com,2013-02-10 21:11:00,
2013-02-10 16:26:00,73.9,61.8,30.03,ESE,112,4.2,-999.0,66,-99.99,,,0.00,Acu-Link.com,2013-02-10 21:26:00,
2013-02-10 16:41:00,74.5,62.4,30.03,ESE,112,13.0,-999.0,66,-99.99,,,0.00,Acu-Link.com,2013-02-10 21:41:00,
2013-02-10 16:56:00,73.6,62.0,30.03,East,90,9.9,-999.0,67,-99.99,,,0.00,Acu-Link.com,2013-02-10 21:56:00,
2013-02-10 17:11:00,73.0,62.2,30.03,East,90,13.0,-999.0,69,-99.99,,,0.00,Acu-Link.com,2013-02-10 22:11:00,
2013-02-10 17:26:00,72.9,62.1,30.03,SSE,157,9.4,-999.0,69,-99.99,,,0.00,Acu-Link.com,2013-02-10 22:26:00,
2013-02-10 17:42:00,72.9,62.1,30.03,ESE,112,11.4,-999.0,69,-99.99,,,0.00,Acu-Link.com,2013-02-10 22:42:00,
2013-02-10 17:57:00,72.0,61.7,30.03,ESE,112,9.9,-999.0,70,-99.99,,,0.00,Acu-Link.com,2013-02-10 22:57:00,
2013-02-10 18:12:00,71.8,61.9,30.02,ESE,112,9.4,-999.0,71,-99.99,,,0.00,Acu-Link.com,2013-02-10 23:12:00,
2013-02-10 18:27:00,71.8,61.9,30.03,East,90,4.7,-999.0,71,-99.99,,,0.00,Acu-Link.com,2013-02-10 23:27:00,
2013-02-10 18:43:00,71.8,61.9,30.03,East,90,10.9,-999.0,71,-99.99,,,0.00,Acu-Link.com,2013-02-10 23:43:00,
2013-02-10 18:58:00,71.8,61.9,30.04,East,90,6.3,-999.0,71,-99.99,,,0.00,Acu-Link.com,2013-02-10 23:58:00,
2013-02-10 19:13:00,71.6,61.7,30.04,ESE,112,5.3,-999.0,71,-99.99,,,0.00,Acu-Link.com,2013-02-11 00:13:00,
2013-02-10 19:28:00,71.6,61.7,30.05,ESE,112,3.7,-999.0,71,-99.99,,,0.00,Acu-Link.com,2013-02-11 00:28:00,
2013-02-10 19:43:00,71.6,61.7,30.05,ESE,112,5.3,-999.0,71,-99.99,,,0.00,Acu-Link.com,2013-02-11 00:43:00,
2013-02-10 19:58:00,71.1,62.0,30.06,ESE,112,5.3,-999.0,73,-99.99,,,0.00,Acu-Link.com,2013-02-11 00:58:00,
2013-02-10 20:14:00,71.2,62.1,30.06,SE,135,7.3,-999.0,73,-99.99,,,0.00,Acu-Link.com,2013-02-11 01:14:00,
2013-02-10 20:29:00,71.4,62.3,30.07,East,90,5.3,-999.0,73,-99.99,,,0.00,Acu-Link.com,2013-02-11 01:29:00,
2013-02-10 20:44:00,71.8,62.7,30.06,ESE,112,5.8,-999.0,73,-99.99,,,0.00,Acu-Link.com,2013-02-11 01:44:00,
2013-02-10 20:59:00,71.6,62.5,30.07,ESE,112,3.7,-999.0,73,-99.99,,,0.00,Acu-Link.com,2013-02-11 01:59:00,
2013-02-10 21:14:00,71.6,62.5,30.06,ESE,112,4.7,-999.0,73,-99.99,,,0.00,Acu-Link.com,2013-02-11 02:14:00,
2013-02-10 21:29:00,71.2,62.1,30.06,SE,135,4.2,-999.0,73,-99.99,,,0.00,Acu-Link.com,2013-02-11 02:29:00,
2013-02-10 21:44:00,71.2,62.1,30.07,SE,135,6.3,-999.0,73,-99.99,,,0.00,Acu-Link.com,2013-02-11 02:44:00,
2013-02-10 21:59:00,71.1,62.0,30.07,ENE,67,7.8,-999.0,73,-99.99,,,0.00,Acu-Link.com,2013-02-11 02:59:00,
2013-02-10 22:14:00,71.1,62.0,30.06,ESE,112,7.8,-999.0,73,-99.99,,,0.00,Acu-Link.com,2013-02-11 03:14:00,
2013-02-10 22:30:00,71.4,62.3,30.06,ESE,112,4.7,-999.0,73,-99.99,,,0.00,Acu-Link.com,2013-02-11 03:30:00,
2013-02-10 22:45:00,71.1,62.4,30.05,SSE,157,3.2,-999.0,74,-99.99,,,0.00,Acu-Link.com,2013-02-11 03:45:00,
2013-02-10 23:00:00,71.2,62.5,30.05,ESE,112,7.8,-999.0,74,-99.99,,,0.00,Acu-Link.com,2013-02-11 04:00:00,
2013-02-10 23:15:00,71.4,61.9,30.06,ESE,112,5.8,-999.0,72,-99.99,,,0.00,Acu-Link.com,2013-02-11 04:15:00,
2013-02-10 23:30:00,71.6,61.7,30.06,SE,135,5.3,-999.0,71,-99.99,,,0.00,Acu-Link.com,2013-02-11 04:30:00,
2013-02-10 23:45:00,71.6,61.7,30.06,SE,135,6.8,-999.0,71,-99.99,,,0.00,Acu-Link.com,2013-02-11 04:45:00,